CDT,Max TemperatureF,Mean TemperatureF,Min TemperatureF,Max Dew PointF,MeanDew PointF,Min DewpointF,Max Humidity, Mean Humidity, Min Humidity, Max Sea Level PressureIn, Mean Sea Level PressureIn, Min Sea Level PressureIn, Max VisibilityMiles, Mean VisibilityMiles, Min VisibilityMiles, Max Wind SpeedMPH, Mean Wind SpeedMPH, Max Gust SpeedMPH,PrecipitationIn, CloudCover, Events, WindDirDegrees
2013-6-1,80,64,50,43,38,30,66,39,16,30.19,30.07,29.90,10,10,10,22,13,34,0.00,0,,16
2013-6-2,85,65,46,46,42,37,70,42,23,30.22,30.11,29.94,10,10,10,23,9,30,0.00,0,,151
2013-6-3,97,80,63,52,46,34,53,31,11,29.97,29.86,29.71,10,10,10,28,18,37,0.00,1,,203
2013-6-4,94,76,58,59,48,37,81,36,14,29.91,29.85,29.78,10,10,10,22,12,25,0.00,0,,81
2013-6-5,74,65,55,64,55,51,90,71,52,30.14,30.04,29.87,10,10,7,22,15,32,0.00,4,,28
2013-6-6,79,64,52,52,50,47,96,64,33,30.16,30.09,30.01,10,9,4,15,8,18,0.00,4,,32
2013-6-7,86,70,54,58,52,46,97,58,27,30.11,30.01,29.90,10,9,1,48,11,81,0.53,1,Rain,181
2013-6-8,86,72,57,60,57,48,92,65,26,29.99,29.86,29.75,10,10,3,25,17,33,0.14,0,Rain,204
2013-6-9,86,71,56,62,58,53,99,66,34,30.08,30.02,29.97,10,9,1,20,8,26,0.00,0,,188
2013-6-10,100,84,67,59,52,39,65,39,13,30.01,29.97,29.90,10,10,10,29,17,34,0.00,0,,202
2013-6-11,100,88,77,51,47,44,37,23,17,29.99,29.93,29.86,10,10,10,30,21,37,0.00,0,,190
2013-6-12,96,82,69,54,51,47,52,34,20,30.08,30.03,29.95,10,10,4,21,14,29,0.00,0,,172
2013-6-13,95,81,67,60,56,51,72,43,23,30.14,30.07,29.98,10,10,7,21,12,30,0.00,0,,184
2013-6-14,92,79,66,63,55,39,85,49,17,30.07,30.03,29.97,10,10,10,30,14,38,0.00,1,,182
2013-6-15,91,78,64,63,59,49,93,61,29,30.06,30.00,29.92,10,10,5,25,16,38,0.06,2,Rain,175
2013-6-16,95,78,62,65,60,52,88,60,24,30.12,30.03,29.92,10,10,10,23,14,30,0.06,2,,122
2013-6-17,86,73,60,61,58,53,96,62,33,30.13,30.08,30.00,10,10,5,24,11,29,0.00,0,Rain,66
2013-6-18,87,75,63,64,57,48,96,57,28,30.16,30.09,29.98,10,10,7,18,9,23,0.02,1,Rain,173
2013-6-19,80,70,61,63,61,57,97,71,48,30.10,29.99,29.84,10,10,4,32,17,43,0.05,3,Rain,146
2013-6-20,96,78,62,62,56,39,95,50,21,29.97,29.92,29.84,10,10,4,37,12,48,0.00,2,,179
2013-6-21,95,80,66,62,55,44,69,41,19,30.02,29.96,29.89,10,10,10,32,22,43,0.00,1,,189
2013-6-22,100,84,68,61,56,35,71,43,11,29.95,29.89,29.79,10,10,10,30,18,39,0.00,0,,187
2013-6-23,97,83,69,61,56,45,64,42,18,29.92,29.87,29.80,10,10,7,25,17,34,0.00,1,,177
2013-6-24,96,84,72,60,56,49,61,41,21,29.96,29.89,29.81,10,10,10,28,21,38,0.00,0,,184
2013-6-25,102,86,72,60,39,15,64,29,4,29.93,29.88,29.82,10,10,10,28,21,39,0.00,0,,228
2013-6-26,102,83,64,61,44,23,62,28,9,30.02,29.94,29.86,10,10,7,16,9,18,0.00,0,,128
2013-6-27,106,86,67,64,55,45,79,40,13,30.15,30.05,29.98,10,10,5,23,10,34,0.02,0,Rain,159
2013-6-28,95,80,65,67,57,47,85,48,19,30.22,30.15,30.08,10,10,10,17,8,25,0.00,0,,67
2013-6-29,94,80,65,63,55,52,91,44,28,30.15,30.09,30.00,10,10,5,26,10,34,0.05,0,Rain,103
2013-6-30,85,74,62,63,56,50,88,61,31,30.20,30.14,30.10,10,10,10,23,10,32,0.00,0,Rain,56